星链-11147 (STARLINK-11147)

导读

STARLINK-11147是美国SpaceX星链计划中的卫星,于2024年7月28日发射升空,作为星链星座的组成部分,它承担着为全球范围提供高速互联网接入服务的任务,尤其服务于偏远地区、海洋、航空等传统网络覆盖薄弱场景,进一步扩充了星链星座的规模与服务能力。

基本信息
目录编号:
60301
目录名称:
STARLINK-11147
国际标识:
2024-133A
轨道中心:
EARTH
卫星名称:
星链-11147 (STARLINK-11147)
卫星全名:
星链-11147 (STARLINK-11147)
卫星状态:
在轨 (已飞行775 天)
发射日期:
2024-07-28 UTC
国别 :
美国 (US)
星等 :
--
该卫星已列入 空间交会检测服务 Space Conjunction Data Service (SCDS) ,当前飞行风险评估等级: 无高风险
轨道信息
数据来源 国际轨道数据
星历时间: 2026-09-10T19:22:32+0800
22小时前
查看轨道信息
半长轴: 6737.86km
偏心率: 0.0001309
轨道倾角: 53.158°
近地点辐角 72.993°
升交点赤经 315.521°
平近点角 287.123°
近地点: 358.841km
远地点: 360.605km
周期: 91.737分钟
每日圈数: 15.697116
详细信息
卫星平台:
Starlink v2.0 mini
运营商:
太空探索技术公司
运营商所在国:
美国
制造商(研发单位):
太空探索技术公司
制造商所在国:
美国
使用方式:
暂无
卫星简介
星链(Starlink)计划是由太空探索技术公司(SpaceX)提出的一个巨型低轨卫星互联网星座项目,计划在2019年至2024年间在太空搭建由约1.2万颗卫星组成的“星链”网络,其中1584颗将部署在地球上空550千米处的近地轨道,并从2020年开始工作。该卫星仍在工作。
2D轨道图
3D轨道图
轨道高度分析图
轨道倾角分析图
轨道综合分析图
查看轨道综合分析图
交会数据列表
事件ID 空间交会对象 最接近时刻(TCA) 交会距离 交会风险概率(CRP) 交会风险指数(CRI) 操作
CDM_260911-233306-030106-206121
2026-09-11T
23:33:39+0000
2.213 km
极远距离
1.4852E-6 低风险 0.38
CDM_260911-211606-030106-206121
2026-09-11T
21:16:09+0000
2.622 km
极远距离
1.091889E-6 低风险 0.36
与全量物体交会距离演化趋势
与全量物体交会风险概率演化趋势